Sussex, NJ

10:27 PM EDT on May 26, 2017 (GMT -0400)
Sussex

Weather History for KFWN - March, 2014

Change the Weather History Date:

Thursday, March 20, 2014

  Actual Average Record
Temperature  
Mean Temperature 44 °F -  
Max Temperature 53 °F 47 °F 75 °F (2012)
Min Temperature 35 °F 24 °F -5 °F (1967)
Degree Days  
Heating Degree Days 21    
Moisture  
Dew Point 31 °F    
Average Humidity 73    
Maximum Humidity 93    
Minimum Humidity 37    
Precipitation  
Precipitation 0.00 in - - ()
Sea Level Pressure  
Sea Level Pressure 29.78 in    
Wind  
Wind Speed 5 mph (SW)    
Max Wind Speed 14 mph    
Max Gust Speed 28 mph    
Visibility 6 miles    
Events Fog    
Averages and records for this station are not official NWS values.
T = Trace of Precipitation, MM = Missing Value Source: NWS Daily Summary

Daily Weather History Graph

Daily Weather History Graph

Search for Another Location

Airport or City:

Trip Planner

Search our weather history database for the weather conditions in past years. The results will help you decide how hot, cold, wet, or windy it might be!

Date:

Astronomy

Mar. 20, 2014 Rise Set
Actual Time 7:01 AM EDT 7:10 PM EDT
Civil Twilight 6:34 AM EDT 7:38 PM EDT
Nautical Twilight 6:02 AM EDT 8:10 PM EDT
Astronomical Twilight 5:29 AM EDT 8:43 PM EDT
Moon 11:30 PM EDT (3/20) 9:04 AM EDT (3/20)
Length of Visible Light 13h 03m
Length of Day
12h 08m
Waning Gibbous, 84% of the Moon is Illuminated
Mar 20
Waning Gibbous
Mar 23
Last Quarter
Mar 30
New
Apr 7
First Quarter
Apr 15
Full

Hourly Weather History & Observations

Time (EDT) Temp. Windchill Dew Point Humidity Pressure Visibility Wind Dir Wind Speed Gust Speed Precip Events Conditions
12:53 AM 37.0 °F 34.5 °F 34.0 °F 89% 29.82 in 8.0 mi NE 3.5 mph - N/A   Overcast
1:53 AM 37.0 °F 30.4 °F 34.0 °F 89% 29.78 in 7.0 mi NE 9.2 mph - N/A   Overcast
2:53 AM 37.0 °F - 35.1 °F 93% 29.77 in 10.0 mi Calm Calm - 0.00 in   Overcast
3:53 AM 36.0 °F - 33.1 °F 89% 29.75 in 4.0 mi Calm Calm - N/A   Overcast
4:02 AM 36.0 °F - 34.0 °F 93% 29.74 in 2.5 mi Calm Calm - N/A   Overcast
4:26 AM 36.0 °F - 34.0 °F 93% 29.74 in 1.5 mi Calm Calm - N/A   Overcast
4:40 AM 36.0 °F 33.3 °F 34.0 °F 93% 29.75 in 1.2 mi South 3.5 mph - N/A   Overcast
4:53 AM 36.0 °F 33.3 °F 34.0 °F 93% 29.75 in 1.0 mi SSW 3.5 mph - N/A   Mist
5:04 AM 36.0 °F - 34.0 °F 93% 29.74 in 0.8 mi Calm Calm - N/A   Mist
5:53 AM 36.0 °F 32.1 °F 34.0 °F 93% 29.74 in 0.5 mi SSW 4.6 mph - N/A Fog Fog
6:40 AM 36.0 °F - 34.0 °F 93% 29.73 in 1.0 mi Calm Calm - N/A   Overcast
6:48 AM 35.6 °F 32.8 °F 33.8 °F 93% 29.73 in 0.8 mi SSW 3.5 mph - N/A   Overcast
6:53 AM 36.0 °F 33.3 °F 34.0 °F 93% 29.75 in 0.8 mi SSW 3.5 mph - N/A   Mist
7:14 AM 37.0 °F 31.6 °F 34.0 °F 89% 29.74 in 1.5 mi SW 6.9 mph - N/A   Overcast
7:39 AM 37.0 °F 31.6 °F 35.1 °F 93% 29.75 in 1.0 mi SW 6.9 mph - N/A   Overcast
7:53 AM 37.0 °F 33.3 °F 35.1 °F 93% 29.77 in 1.5 mi SSW 4.6 mph - N/A   Overcast
8:04 AM 37.9 °F 33.5 °F 36.0 °F 93% 29.75 in 2.5 mi SSW 5.8 mph - N/A   Overcast
8:15 AM 37.9 °F 34.4 °F 36.0 °F 93% 29.75 in 3.0 mi SSW 4.6 mph - N/A   Overcast
8:53 AM 39.0 °F 33.4 °F 37.0 °F 93% 29.77 in 5.0 mi SW 8.1 mph - N/A   Overcast
9:42 AM 42.1 °F 40.2 °F 39.0 °F 89% 29.77 in 7.0 mi South 3.5 mph - N/A   Overcast
9:53 AM 42.1 °F 40.2 °F 39.0 °F 89% 29.78 in 7.0 mi SSW 3.5 mph - N/A   Overcast
10:53 AM 46.9 °F - 37.9 °F 71% 29.76 in 10.0 mi South 6.9 mph - N/A   Mostly Cloudy
11:53 AM 52.0 °F - 28.0 °F 40% 29.76 in 10.0 mi West 9.2 mph 20.7 mph N/A   Mostly Cloudy
12:53 PM 51.1 °F - 27.0 °F 39% 29.75 in 10.0 mi WSW 9.2 mph 19.6 mph N/A   Mostly Cloudy
1:53 PM 53.1 °F - 28.0 °F 38% 29.74 in 10.0 mi West 13.8 mph 25.3 mph N/A   Scattered Clouds
2:53 PM 51.1 °F - 26.1 °F 38% 29.74 in 10.0 mi Variable 5.8 mph 27.6 mph N/A   Overcast
3:53 PM 48.0 °F - 28.9 °F 48% 29.76 in 10.0 mi Variable 6.9 mph - N/A   Overcast
4:53 PM 50.0 °F - 27.0 °F 41% 29.76 in 10.0 mi WSW 11.5 mph 23.0 mph N/A   Mostly Cloudy
5:53 PM 48.0 °F - 23.0 °F 37% 29.79 in 10.0 mi West 9.2 mph 20.7 mph N/A   Overcast
6:53 PM 46.0 °F 41.4 °F 21.9 °F 39% 29.82 in 10.0 mi WSW 9.2 mph 16.1 mph N/A   Mostly Cloudy
7:53 PM 44.1 °F 40.8 °F 24.1 °F 45% 29.85 in 10.0 mi Variable 5.8 mph - N/A   Mostly Cloudy
8:53 PM 42.1 °F 34.9 °F 24.1 °F 49% 29.88 in 10.0 mi West 13.8 mph 20.7 mph N/A   Mostly Cloudy
9:53 PM 41.0 °F 36.4 °F 24.1 °F 51% 29.89 in 10.0 mi Variable 6.9 mph - N/A   Scattered Clouds
10:53 PM 39.9 °F 37.8 °F 24.1 °F 53% 29.90 in 10.0 mi Variable 3.5 mph 17.3 mph N/A   Mostly Cloudy
11:53 PM 39.0 °F 34.8 °F 21.9 °F 50% 29.90 in 10.0 mi Variable 5.8 mph - N/A   Mostly Cloudy